ROT647M LROP-LRCL

Flight info

Callsign ROT647M
Flight time 0h 43m
Altitude 24000
Route BUKEL DCT EDETA
Aircraft A320/M-SDE3FGHIRWY/LB1

Departure

Time 2026-04-24 16:06
Airport Bucharest Henri Coandă International Airport (LROP)

Arrival

Time 2026-04-24 16:49
Airport Avram Iancu Cluj International Airport (LRCL)
Time Latitude Longitude Altitude Speed Heading
2026-04-24 15:41 44.57027 26.08197 323 ft 0 kts 354°
2026-04-24 15:49 44.57027 26.08198 323 ft 0 kts 354°
2026-04-24 15:49 44.57026 26.08197 323 ft 0 kts 354°
2026-04-24 15:50 44.57026 26.08198 323 ft 0 kts 354°
2026-04-24 15:50 44.57026 26.08197 323 ft 0 kts 354°
2026-04-24 15:51 44.57026 26.08198 323 ft 0 kts 354°
2026-04-24 15:54 44.57002 26.08201 322 ft 4 kts 354°
2026-04-24 15:55 44.56975 26.08204 321 ft 4 kts
2026-04-24 15:55 44.56951 26.08195 322 ft 4 kts 40°
2026-04-24 15:55 44.56939 26.08171 319 ft 1 kts 83°
2026-04-24 15:55 44.56939 26.08165 319 ft 3 kts 83°
2026-04-24 15:57 44.56939 26.08164 319 ft 0 kts 83°
2026-04-24 15:57 44.56940 26.08183 321 ft 7 kts 84°
2026-04-24 15:58 44.56945 26.08256 323 ft 7 kts 84°
2026-04-24 15:58 44.56951 26.08326 323 ft 7 kts 83°
2026-04-24 15:58 44.56924 26.08400 323 ft 13 kts 168°
2026-04-24 15:58 44.56895 26.08459 323 ft 14 kts 82°
2026-04-24 15:59 44.56926 26.08620 323 ft 12 kts 85°
2026-04-24 15:59 44.56930 26.08760 323 ft 22 kts 88°
2026-04-24 15:59 44.56947 26.08996 323 ft 25 kts 83°
2026-04-24 15:59 44.56967 26.09217 323 ft 22 kts 84°
2026-04-24 16:00 44.56984 26.09433 323 ft 21 kts 84°
2026-04-24 16:00 44.57000 26.09636 323 ft 20 kts 83°
2026-04-24 16:00 44.57015 26.09827 323 ft 19 kts 83°
2026-04-24 16:00 44.57029 26.10003 323 ft 18 kts 83°
2026-04-24 16:01 44.57042 26.10171 323 ft 17 kts 85°
2026-04-24 16:01 44.57053 26.10337 323 ft 16 kts 84°
2026-04-24 16:01 44.57064 26.10475 323 ft 9 kts 82°
2026-04-24 16:01 44.57067 26.10557 323 ft 8 kts 99°
2026-04-24 16:02 44.57035 26.10641 322 ft 15 kts 123°
2026-04-24 16:02 44.56950 26.10736 323 ft 16 kts 170°
2026-04-24 16:02 44.56834 26.10755 322 ft 17 kts 173°
2026-04-24 16:02 44.56714 26.10772 322 ft 11 kts 184°
2026-04-24 16:03 44.56694 26.10718 322 ft 0 kts 264°
2026-04-24 16:05 44.56694 26.10716 322 ft 3 kts 264°
2026-04-24 16:05 44.56661 26.10285 323 ft 87 kts 264°
2026-04-24 16:06 44.56439 26.07606 1131 ft 153 kts 260°
2026-04-24 16:06 44.56296 26.06122 2055 ft 152 kts 264°
2026-04-24 16:06 44.56156 26.02813 3188 ft 193 kts 285°
2026-04-24 16:07 44.57001 26.01238 3728 ft 222 kts 327°
2026-04-24 16:07 44.58495 26.00274 4386 ft 249 kts 336°
2026-04-24 16:07 44.61883 25.98564 6536 ft 263 kts 339°
2026-04-24 16:08 44.63612 25.97712 7674 ft 266 kts 339°
2026-04-24 16:08 44.67078 25.95948 9912 ft 272 kts 339°
2026-04-24 16:09 44.70884 25.93944 11134 ft 311 kts 339°
2026-04-24 16:09 44.72935 25.92854 12034 ft 317 kts 339°
2026-04-24 16:09 44.75004 25.91738 13019 ft 320 kts 339°
2026-04-24 16:09 44.77080 25.90559 13968 ft 324 kts 338°
2026-04-24 16:10 44.83358 25.86869 16647 ft 330 kts 339°
2026-04-24 16:11 44.87636 25.84354 18281 ft 337 kts 340°
2026-04-24 16:11 44.89813 25.83086 18990 ft 340 kts 340°
2026-04-24 16:11 44.92016 25.81811 19700 ft 344 kts 340°
2026-04-24 16:12 44.96523 25.79197 21141 ft 351 kts 340°
2026-04-24 16:12 44.98766 25.77879 21843 ft 355 kts 340°
2026-04-24 16:12 45.03405 25.75145 23294 ft 362 kts 340°
2026-04-24 16:13 45.05665 25.73628 23740 ft 367 kts 332°
2026-04-24 16:13 45.09707 25.69176 23909 ft 365 kts 327°
2026-04-24 16:14 45.13823 25.65027 23915 ft 362 kts 329°
2026-04-24 16:14 45.15909 25.63035 23914 ft 362 kts 330°
2026-04-24 16:14 45.20085 25.59058 23928 ft 362 kts 329°
2026-04-24 16:15 45.21490 25.57706 23930 ft 362 kts 329°
2026-04-24 16:15 45.26310 25.53009 23931 ft 362 kts 329°
2026-04-24 16:16 45.30445 25.48939 23931 ft 362 kts 329°
2026-04-24 16:16 45.32517 25.46897 23928 ft 361 kts 329°
2026-04-24 16:17 45.38722 25.40797 23940 ft 362 kts 329°
2026-04-24 16:17 45.42856 25.36723 23943 ft 361 kts 329°
2026-04-24 16:18 45.46991 25.32636 23947 ft 362 kts 329°
2026-04-24 16:18 45.51124 25.28552 23932 ft 361 kts 329°
2026-04-24 16:18 45.53192 25.26508 23935 ft 361 kts 329°
2026-04-24 16:19 45.57320 25.22412 23954 ft 362 kts 329°
2026-04-24 16:19 45.59386 25.20357 23947 ft 362 kts 328°
2026-04-24 16:20 45.62839 25.16916 23944 ft 362 kts 328°
2026-04-24 16:20 45.66975 25.12792 23950 ft 362 kts 329°
2026-04-24 16:20 45.69043 25.10732 23953 ft 362 kts 329°
2026-04-24 16:21 45.73178 25.06609 23953 ft 362 kts 328°
2026-04-24 16:21 45.75242 25.04545 23957 ft 362 kts 328°
2026-04-24 16:21 45.77306 25.02475 23954 ft 362 kts 328°
2026-04-24 16:22 45.79367 25.00406 23947 ft 362 kts 328°
2026-04-24 16:22 45.83499 24.96260 23959 ft 362 kts 328°
2026-04-24 16:22 45.85564 24.94183 23970 ft 362 kts 328°
2026-04-24 16:23 45.87622 24.92110 23968 ft 362 kts 328°
2026-04-24 16:23 45.89659 24.90060 23972 ft 362 kts 328°
2026-04-24 16:23 45.91720 24.87983 23975 ft 362 kts 328°
2026-04-24 16:24 45.95861 24.83805 23963 ft 362 kts 328°
2026-04-24 16:24 45.97922 24.81720 23953 ft 362 kts 328°
2026-04-24 16:24 45.99980 24.79634 23950 ft 363 kts 328°
2026-04-24 16:24 46.02041 24.77546 23862 ft 361 kts 328°
2026-04-24 16:25 46.04076 24.75479 23630 ft 357 kts 328°
2026-04-24 16:25 46.06104 24.73421 23372 ft 355 kts 328°
2026-04-24 16:25 46.08114 24.71381 23099 ft 353 kts 328°
2026-04-24 16:26 46.12059 24.67363 22257 ft 341 kts 328°
2026-04-24 16:26 46.13983 24.65402 21789 ft 336 kts 328°
2026-04-24 16:26 46.17755 24.61555 20849 ft 328 kts 328°
2026-04-24 16:27 46.19611 24.59661 20396 ft 325 kts 328°
2026-04-24 16:27 46.21442 24.57796 19934 ft 322 kts 328°
2026-04-24 16:27 46.23271 24.55926 19466 ft 319 kts 328°
2026-04-24 16:27 46.25073 24.54081 19012 ft 317 kts 328°
2026-04-24 16:28 46.26867 24.52243 18536 ft 316 kts 328°
2026-04-24 16:28 46.28652 24.50414 18058 ft 314 kts 327°
2026-04-24 16:28 46.32187 24.46786 17128 ft 308 kts 327°
2026-04-24 16:29 46.33929 24.44996 16696 ft 305 kts 327°
2026-04-24 16:29 46.35650 24.43226 16268 ft 302 kts 327°
2026-04-24 16:29 46.39047 24.39729 15410 ft 297 kts 327°
2026-04-24 16:30 46.42393 24.36281 14604 ft 294 kts 327°
2026-04-24 16:30 46.44059 24.34563 14173 ft 293 kts 326°
2026-04-24 16:30 46.45720 24.32846 13741 ft 293 kts 326°
2026-04-24 16:31 46.47376 24.31132 13277 ft 292 kts 326°
2026-04-24 16:31 46.49019 24.29433 12836 ft 290 kts 326°
2026-04-24 16:31 46.50659 24.27737 12399 ft 288 kts 326°
2026-04-24 16:31 46.52286 24.26055 11964 ft 287 kts 325°
2026-04-24 16:32 46.53904 24.24377 11528 ft 285 kts 325°
2026-04-24 16:32 46.55510 24.22707 11083 ft 284 kts 324°
2026-04-24 16:32 46.57115 24.21037 10651 ft 283 kts 324°
2026-04-24 16:32 46.58705 24.19381 10279 ft 279 kts 324°
2026-04-24 16:33 46.60266 24.17755 10001 ft 272 kts 324°
2026-04-24 16:33 46.61775 24.16183 9858 ft 270 kts 324°
2026-04-24 16:33 46.63322 24.14572 9718 ft 271 kts 324°
2026-04-24 16:33 46.64855 24.12975 9376 ft 269 kts 324°
2026-04-24 16:34 46.66369 24.11392 8790 ft 268 kts 324°
2026-04-24 16:34 46.67880 24.09814 8118 ft 265 kts 324°
2026-04-24 16:34 46.69369 24.08259 7461 ft 262 kts 324°
2026-04-24 16:34 46.70840 24.06728 6858 ft 257 kts 324°
2026-04-24 16:35 46.72285 24.05222 6354 ft 255 kts 324°
2026-04-24 16:35 46.73701 24.03741 5875 ft 253 kts 324°
2026-04-24 16:35 46.75148 24.02224 5336 ft 252 kts 324°
2026-04-24 16:35 46.76567 24.00734 4840 ft 251 kts 324°
2026-04-24 16:36 46.77978 23.99249 4371 ft 248 kts 324°
2026-04-24 16:36 46.79315 23.97843 4302 ft 232 kts 323°
2026-04-24 16:36 46.80586 23.96511 4244 ft 218 kts 324°
2026-04-24 16:36 46.81801 23.95232 4162 ft 214 kts 322°
2026-04-24 16:37 46.82803 23.93670 4070 ft 208 kts 304°
2026-04-24 16:37 46.83358 23.91749 4021 ft 207 kts 285°
2026-04-24 16:37 46.83433 23.89642 3853 ft 211 kts 266°
2026-04-24 16:37 46.83032 23.87555 3601 ft 210 kts 256°
2026-04-24 16:38 46.82578 23.85531 3327 ft 210 kts 256°
2026-04-24 16:38 46.82133 23.83544 3053 ft 204 kts 257°
2026-04-24 16:38 46.81702 23.81623 2808 ft 189 kts 256°
2026-04-24 16:38 46.81317 23.79911 2541 ft 170 kts 257°
2026-04-24 16:39 46.80967 23.78355 2325 ft 151 kts 258°
2026-04-24 16:39 46.80655 23.76967 2122 ft 137 kts 259°
2026-04-24 16:39 46.80369 23.75690 1942 ft 132 kts 258°
2026-04-24 16:39 46.80091 23.74416 1722 ft 128 kts 263°
2026-04-24 16:40 46.79838 23.73228 1640 ft 121 kts 254°
2026-04-24 16:40 46.79688 23.72025 1496 ft 129 kts 268°
2026-04-24 16:40 46.79573 23.70689 2517 ft 137 kts 269°
2026-04-24 16:40 46.79446 23.69210 3231 ft 157 kts 269°
2026-04-24 16:41 46.79333 23.67508 3786 ft 179 kts 270°
2026-04-24 16:41 46.79068 23.65648 4016 ft 195 kts 250°
2026-04-24 16:41 46.78467 23.63832 4021 ft 208 kts 251°
2026-04-24 16:41 46.77983 23.61770 4032 ft 218 kts 269°
2026-04-24 16:42 46.78275 23.59649 4035 ft 215 kts 302°
2026-04-24 16:42 46.79348 23.58171 4033 ft 216 kts 335°
2026-04-24 16:42 46.80814 23.57863 4033 ft 219 kts
2026-04-24 16:42 46.82183 23.58833 4038 ft 229 kts 37°
2026-04-24 16:43 46.83228 23.60656 4041 ft 235 kts 53°
2026-04-24 16:43 46.84012 23.62751 4040 ft 236 kts 63°
2026-04-24 16:43 46.84596 23.65004 4038 ft 239 kts 66°
2026-04-24 16:43 46.85142 23.67306 4035 ft 240 kts 66°
2026-04-24 16:44 46.85673 23.69601 4036 ft 238 kts 66°
2026-04-24 16:44 46.86203 23.71883 3913 ft 236 kts 66°
2026-04-24 16:44 46.86733 23.74144 3598 ft 232 kts 66°
2026-04-24 16:44 46.87185 23.76331 3466 ft 225 kts 77°
2026-04-24 16:45 46.87071 23.78605 3336 ft 222 kts 106°
2026-04-24 16:45 46.86274 23.80501 3212 ft 219 kts 136°
2026-04-24 16:45 46.85006 23.81644 2958 ft 220 kts 165°
2026-04-24 16:45 46.83529 23.81800 2795 ft 199 kts 195°
2026-04-24 16:46 46.82362 23.81160 2684 ft 162 kts 219°
2026-04-24 16:46 46.81582 23.80158 2537 ft 141 kts 239°
2026-04-24 16:46 46.81111 23.78969 2391 ft 130 kts 255°
2026-04-24 16:46 46.80830 23.77709 2218 ft 131 kts 261°
2026-04-24 16:47 46.80554 23.76442 2043 ft 128 kts 267°
2026-04-24 16:47 46.80313 23.75194 1882 ft 130 kts 258°
2026-04-24 16:47 46.79996 23.73922 1697 ft 132 kts 255°
2026-04-24 16:47 46.79738 23.72684 1474 ft 129 kts 265°
2026-04-24 16:48 46.79454 23.71438 1354 ft 130 kts 251°
2026-04-24 16:48 46.79124 23.70206 1188 ft 128 kts 255°
2026-04-24 16:48 46.78869 23.68971 1054 ft 119 kts 251°
2026-04-24 16:48 46.78652 23.67990 1043 ft 82 kts 252°
2026-04-24 16:49 46.78523 23.67416 1043 ft 42 kts 251°
2026-04-24 16:49 46.78463 23.67196 1043 ft 14 kts 217°
2026-04-24 16:49 46.78378 23.67225 1043 ft 13 kts 141°
2026-04-24 16:49 46.78351 23.67379 1043 ft 18 kts 72°